Torna al catalogo

DMSP 5D-2 F13 DEB

AttivoPO
NORAD 42298·DEBRIS·🇺🇸 United States

Lanciato Mar 24, 1995 da Vandenberg Space Force Base

Loading…

Prossimi Passaggi (prossime 24 ore)

TLE

AggiornatoSource: Space-Track

Epoca: Sep 13, 2026, 02:24 UTC

1 42298U 95015HQ  26256.10057610  .00002887  00000-0  25529-2 0  9996
2 42298  98.7139 212.4479 0259933  20.5485 340.5893 13.71542194545865

Traccia DMSP 5D-2 F13 DEB in tempo reale con AllMySat

Download on the App Store